Погода в Октябрьском

Россия / Республика Башкортостан     54°28′53″N   53°27′56″E
темп.,
°C
ветер,
м/с
пор.,
м/с
влажн.,
%
обл.,
%
осадки,
мм/ч
давл.,
гПа
погр.,
м
23 октября, сб
сб2323:00+10юз81777100 0.0 1004766
02:00+9зюз7148227 0.0 1006652
05:00+8юз6139016 0.0 1007488
08:00+7юз6139227 0.0 1008470
11:00+10юз7137919 0.0 1009899
14:00+12зюз813505 0.0 10101897
17:00+11зюз613506 0.0 10111698
20:00+9юз41172100 0.1 1013358
24 октября, вс
вс2423:00+7юз377784 0.1 1013154
02:00+6ююз2377100 0.0 101346
05:00+7юз2578100 0.0 1012121
08:00+5ссз4488100 1.1 1010597
11:00+5юз138992 2.8 1010239
14:00+9з686395 0.0 10111341
17:00+8з586272 0.2 1012915
20:00+5зюз3776100 0.0 1013145
25 октября, пн
пн2523:00+4зюз2380100 0.0 101452
02:00+3юз1183100 0.0 101412
05:00+2юз1183100 0.0 101511
08:00+2зюз1185100 0.0 101411
11:00+4зсз1272100 0.0 1015262
14:00+6сз345783 0.0 10141061
17:00+6сз355981 0.0 1014607
20:00+2с6108691 0.2 1018640
26 октября, вт
вт2623:000с6118253 0.2 1020829
02:00−2с510805 0.0 1022434
05:00−3ссз49845 0.0 1024360
08:00−4сз25885 0.0 1025156
11:00−1ссз346785 0.0 1026441
14:00+3зсз23435 0.0 1026736
17:00+2зюз354265 0.0 1024180
20:000юз395397 0.0 1025264
27 октября, ср
ср2723:00+1ююз4105397 0.0 1024412
02:000ююз41060100 0.0 1024289
05:00−2ююз49685 0.0 1023219
08:00−2ююз39735 0.0 1023232
11:00+1юз596014 0.0 1022410
14:00+4юз6952100 0.0 1021688
17:00+4юз61156100 0.0 1020629
20:00+3юз6126266 0.0 1019404